W4PUH-1 Weather Reports


Display with metric or nautical units.
time (UTC)temp
F
wind
direction
speed
MPH
gust
MPH
rain 1hr
in
rain 24hr
in
rain mn
in
humidity
%
barometer
mb
20191022223104 84 261 3.0 0.0 0.00 0.00 0.00 73 1013.1
20191022221537 85 261 6.0 0.0 0.00 0.00 0.00 72 1012.8
20191022220102 86 267 6.0 0.0 0.00 0.00 0.00 71 1012.7
20191022214552 87 275 8.0 0.0 0.00 0.00 0.00 70 1012.7
20191022213101 88 251 7.0 0.0 0.00 0.00 0.00 69 1012.8
20191022211540 88 267 6.0 0.0 0.00 0.00 0.00 70 1012.9
20191022210052 89 250 6.0 0.0 0.00 0.00 0.00 67 1012.8
20191022204542 89 284 7.0 0.0 0.00 0.00 0.00 63 1012.7
20191022203113 90 265 8.0 0.0 0.00 0.00 0.00 57 1012.6
20191022201528 89 261 7.0 0.0 0.00 0.00 0.00 64 1012.6
20191022200107 87 266 5.0 0.0 0.00 0.00 0.00 69 1012.5
20191022194559 89 272 7.0 0.0 0.00 0.00 0.00 69 1012.4
20191022193128 89 267 6.0 0.0 0.00 0.00 0.00 69 1012.3
20191022191533 90 258 4.0 0.0 0.00 0.00 0.00 67 1012.3
20191022190054 90 242 7.0 0.0 0.00 0.00 0.00 65 1012.3
20191022184552 90 241 7.0 0.0 0.00 0.00 0.00 67 1012.4
20191022183041 91 238 7.0 0.0 0.00 0.00 0.00 65 1012.4
20191022181543 90 235 5.0 0.0 0.00 0.00 0.00 67 1012.5
20191022180029 90 227 6.0 0.0 0.00 0.00 0.00 68 1012.9
20191022174525 90 247 6.0 0.0 0.00 0.00 0.00 69 1013.1
20191022173005 89 239 5.0 0.0 0.00 0.00 0.00 69 1013.4
20191022171503 88 246 5.0 0.0 0.00 0.00 0.00 71 1013.6
20191022170216 88 249 5.0 0.0 0.00 0.00 0.00 72 1013.9
20191022164721 87 237 5.0 0.0 0.00 0.00 0.00 73 1014.1
20191022163144 86 229 6.0 0.0 0.00 0.00 0.00 73 1014.3
20191022161658 87 244 5.0 0.0 0.00 0.00 0.00 71 1014.5
20191022160152 87 213 4.0 0.0 0.00 0.00 0.00 74 1014.7
20191022154612 86 234 3.0 0.0 0.00 0.00 0.00 76 1014.9
20191022153155 85 220 4.0 0.0 0.00 0.00 0.00 78 1015.0
20191022151616 83 229 4.0 0.0 0.00 0.00 0.00 82 1015.2
20191022150103 82 230 3.0 0.0 0.00 0.00 0.00 91 1015.2
20191022144619 80 279 3.0 0.0 0.00 0.00 0.00 94 1015.3
20191022143135 79 279 1.0 0.0 0.00 0.00 0.00 95 1015.4
20191022141603 79 279 1.0 0.0 0.00 0.00 0.00 95 1015.6
20191022140120 79 279 1.0 0.0 0.00 0.00 0.00 95 1015.6
20191022134607 78 279 1.0 0.0 0.00 0.00 0.00 95 1015.5
20191022133059 78 279 2.0 0.0 0.00 0.00 0.00 95 1015.4
20191022131616 77 278 2.0 0.0 0.00 0.00 0.00 95 1015.3
20191022130043 77 279 1.0 0.0 0.00 0.00 0.00 95 1015.2
20191022124557 77 279 0.0 0.0 0.00 0.00 0.00 95 1015.3
20191022123026 77 278 0.0 0.0 0.00 0.00 0.00 95 1015.1
20191022121530 77 279 0.0 0.0 0.00 0.00 0.00 95 1015.1
20191022120043 77 279 0.0 0.0 0.00 0.00 0.00 95 1015.1
20191022114536 76 278 0.0 0.0 0.00 0.00 0.00 95 1015.2
20191022113029 75 279 0.0 0.0 0.00 0.00 0.00 95 1015.2
20191022111522 75 279 0.0 0.0 0.00 0.00 0.00 95 1015.1
20191022110022 75 279 0.0 0.0 0.00 0.00 0.00 95 1015.1
20191022104527 74 279 0.0 0.0 0.00 0.00 0.00 94 1014.9
20191022103041 74 279 0.0 0.0 0.00 0.00 0.00 95 1014.8
20191022101516 73 278 0.0 0.0 0.00 0.00 0.00 94 1014.7
20191022100019 73 278 0.0 0.0 0.00 0.00 0.00 94 1014.7
20191022094511 73 279 0.0 0.0 0.00 0.00 0.00 94 1014.6
20191022093014 73 279 0.0 0.0 0.00 0.00 0.00 94 1014.4
20191022091522 73 279 0.0 0.0 0.00 0.00 0.00 94 1014.4
20191022090013 72 279 0.0 0.0 0.00 0.00 0.00 94 1014.3
20191022084513 72 279 0.0 0.0 0.00 0.00 0.00 94 1014.3
20191022083008 73 278 0.0 0.0 0.00 0.00 0.00 94 1014.3
20191022081509 73 279 0.0 0.0 0.00 0.00 0.00 94 1014.3
20191022080033 73 279 0.0 0.0 0.00 0.00 0.00 94 1014.5
20191022074513 73 279 0.0 0.0 0.00 0.00 0.00 94 1014.7
20191022073011 73 278 0.0 0.0 0.00 0.00 0.00 94 1014.7
20191022071502 73 278 0.0 0.0 0.00 0.00 0.00 94 1014.7
20191022070148 73 278 0.0 0.0 0.00 0.00 0.00 94 1014.7
20191022064714 74 278 0.0 0.0 0.00 0.00 0.00 94 1014.8
20191022063226 74 279 0.0 0.0 0.00 0.00 0.00 94 1014.9
20191022061729 74 279 0.0 0.0 0.00 0.00 0.00 94 1014.9
20191022060227 74 279 0.0 0.0 0.00 0.00 0.00 94 1015.0
20191022054637 74 279 0.0 0.0 0.00 0.00 0.00 93 1014.9
20191022053159 74 279 0.0 0.0 0.00 0.00 0.00 93 1015.0
20191022051647 74 278 0.0 0.0 0.00 0.00 0.00 93 1015.0
20191022050200 74 278 0.0 0.0 0.00 0.00 0.00 93 1015.1
20191022044721 74 279 0.0 0.0 0.00 0.00 0.00 93 1015.1
20191022043108 74 278 0.0 0.0 0.00 0.00 0.00 93 1015.0
20191022041612 74 279 0.0 0.0 0.00 0.00 0.00 93 1014.9
20191022040130 75 279 0.0 0.0 0.00 0.00 0.00 93 1014.8
20191022034638 75 278 0.0 0.0 0.00 0.00 0.80 93 1014.8
20191022033215 75 278 0.0 0.0 0.00 0.00 0.80 93 1014.8
20191022031636 75 278 0.0 0.0 0.00 0.00 0.80 93 1015.0
20191022030150 76 279 0.0 0.0 0.00 0.00 0.80 93 1014.9
20191022024742 76 279 0.0 0.0 0.00 0.00 0.80 93 1014.7
20191022023208 76 278 0.0 0.0 0.00 0.00 0.80 93 1014.8
20191022021624 76 279 0.0 0.0 0.00 0.00 0.80 93 1014.7
20191022020136 77 279 0.0 0.0 0.00 0.00 0.80 92 1014.5
20191022014710 77 278 0.0 0.0 0.00 0.00 0.80 92 1014.4
20191022013051 77 278 0.0 0.0 0.00 0.00 0.80 92 1014.3
20191022011635 77 279 0.0 0.0 0.00 0.00 0.80 92 1014.1
20191022010122 77 278 0.0 0.0 0.00 0.00 0.80 92 1014.2
20191022004616 78 278 0.0 0.0 0.00 0.00 0.80 91 1014.2
20191022003109 78 278 0.0 0.0 0.00 0.00 0.80 91 1014.0
20191022001600 78 278 0.0 0.0 0.00 0.00 0.80 91 1014.0
20191022000131 79 278 0.0 0.0 0.00 0.00 0.80 91 1013.8
20191021234721 79 278 0.0 0.0 0.00 0.00 0.80 90 1013.7
20191021233120 79 278 0.0 0.0 0.00 0.00 0.80 90 1013.6
20191021231556 79 278 0.0 0.0 0.00 0.00 0.80 90 1013.4
20191021230110 80 278 0.0 0.0 0.00 0.00 0.80 89 1013.2
20191021224555 80 278 0.0 0.0 0.00 0.00 0.80 89 1013.1